Regional Weather Roundup
Issued by NWS Boston, MA

Current Version | Previous Version | Graphics & Text | Print | Product List | Glossary On
Versions: 1 2 3 4 5 6 7 8 9 10 11 12 13 14 15 16 17 18 19 20 21 22 23 24 25 26 27 28 29 30 31 32 33 34 35 36 37 38 39 40 41 42 43 44 45 46 47 48 49 50
000
ASUS41 KBOX 150010
RWRBOX

REGIONAL WEATHER ROUNDUP
NATIONAL WEATHER SERVICE BOSTON/NORTON MA
700 PM EST FRI DEC 14 2018

NOTE:  "FAIR" INDICATES FEW OR NO CLOUDS BELOW 12,000 FEET WITH NO
SIGNIFICANT WEATHER AND/OR OBSTRUCTIONS TO VISIBILITY.

MAZALL-150100-
EASTERN MASSACHUSETTS

CITY           SKY/WX    TMP DP  RH WIND       PRES   REMARKS
BOSTON         CLOUDY    42  36  79 S5        30.34F
6HR MIN TEMP:  41; 6HR MAX TEMP:  45;

BEVERLY        FAIR      40  32  73 S5        30.33F
LAWRENCE       MOCLDY    44  33  65 S6        30.34F
BEDFORD        CLOUDY    42  35  76 S6        30.32F
BLUE HILL        N/A     39  37  92 S14       30.31F WCI  31
NORWOOD        CLOUDY    43  38  82 S5        30.34F
MARSHFIELD     FAIR      39  37  93 S7        30.34F
PLYMOUTH       CLOUDY    41  37  86 S3        30.36F
TAUNTON        MOCLDY    41  37  86 SE3       30.35F
NEW BEDFORD    CLOUDY    42  40  92 CALM      30.35F
$$

MAZALL-150100-
CAPE COD AND THE ISLANDS

CITY           SKY/WX    TMP DP  RH WIND       PRES   REMARKS
FALMOUTH       NOT AVBL
HYANNIS        CLOUDY    38  34  85 CALM      30.35F
CHATHAM        CLOUDY    39  38  96 CALM      30.38F
PROVINCETOWN   CLOUDY    42  40  92 S5        30.37F
NANTUCKET      MOCLDY    43  41  93 E6        30.37F
MARTHAS VNYRD  FAIR      38  37  97 E5        30.36F
$$

MAZALL-150100-
CENTRAL AND WESTERN MASSACHUSETTS

CITY           SKY/WX    TMP DP  RH WIND       PRES   REMARKS
WORCESTER      CLOUDY    39  35  86 S8        30.31F
6HR MIN TEMP:  39; 6HR MAX TEMP:  41;

FITCHBURG      CLOUDY    40  31  70 SE6       30.31F
ORANGE         CLOUDY    38  31  76 NW3       30.31F
SPRINGFIELD    CLOUDY    38  31  75 SW6       30.31F
WESTFIELD      CLOUDY    37  31  78 S6        30.31F
NORTH ADAMS    CLOUDY    46  39  76 MISG      30.26F
PITTSFIELD     CLOUDY    42  37  82 S7        30.25F
$$

RIZALL-150100-
RHODE ISLAND

CITY           SKY/WX    TMP DP  RH WIND       PRES   REMARKS
PROVIDENCE     CLOUDY    42  40  92 CALM      30.35F
6HR MIN TEMP:  42; 6HR MAX TEMP:  46;

NEWPORT        CLOUDY    44  42  93 SE5       30.34F
BLOCK ISLAND   MOCLDY    46  45  96 S8        30.35F
SMITHFIELD     CLOUDY    41  39  93 SE5       30.33F
WESTERLY       CLOUDY    48  46  93 CALM      30.36F
$$

CTZALL-150100-
CONNECTICUT

CITY           SKY/WX    TMP DP  RH WIND       PRES   REMARKS
BRADLEY INTL   CLOUDY    39  31  72 CALM      30.33F
6HR MIN TEMP:  38; 6HR MAX TEMP:  40;

HARTFORD       CLOUDY    40  32  73 CALM      30.34F
BRIDGEPORT     CLOUDY    46  44  93 CALM      30.34F
DANBURY        CLOUDY    40  36  86 CALM      30.33F
GROTON         CLOUDY    46  44  93 S3        30.35F
NEW HAVEN      CLOUDY    47  44  90 SE6       30.34F
CHESTER        CLOUDY    45  43  93 CALM      30.34F
MERIDEN        CLOUDY    38  32  79 CALM      30.34S
WILLIMANTIC    CLOUDY    39  36  89 CALM      30.35F
OXFORD         CLOUDY    42  40  92 S6        30.32F
$$

MEZ002-015-021-024-NHZ003-005-008-011-012-014-VTZ005-008-150100-
NORTHERN NEW ENGLAND

CITY           SKY/WX    TMP DP  RH WIND       PRES   REMARKS
PORTLAND ME    FAIR      40  34  79 S10G16    30.32F
6HR MIN TEMP:  39; 6HR MAX TEMP:  41;

BANGOR ME      CLOUDY    38  32  79 SW7       30.30F
CONCORD NH     CLOUDY    40  30  67 S7        30.30F
MANCHESTER NH  CLOUDY    42  31  64 S7        30.29F
NASHUA NH      CLOUDY    39  32  76 CALM      30.32F
PORTSMOUTH NH  CLOUDY    37  30  77 SE6       30.31F WCI  32
JAFFREY NH     CLOUDY    40  35  83 S3        30.28F
KEENE NH       CLOUDY    37  32  82 S3        30.31F
BURLINGTON VT  CLOUDY    41  35  79 S17G28    30.17F
MT. WASHINGTON BLWGSNOW  21  21 100 W51         N/A  VSB 0   WCI  -1
$$

NYZ052-076-150100-
EASTERN NEW YORK

CITY           SKY/WX    TMP DP  RH WIND       PRES   REMARKS
ALBANY         MOCLDY    43  36  76 S12G20    30.26F
6HR MIN TEMP:  41; 6HR MAX TEMP:  43;

NEW YORK CITY  CLOUDY    51  46  83 VRB3      30.33F
6HR MIN TEMP:  44; 6HR MAX TEMP:  52; 6HR PCP:  0.01;

$$

ANZALL-150100-
MARINE OBSERVATIONS

STATION/POSITION TIME  TEMP    WIND        PRES    VSBY  WAVE
                       AIR SEA DIR/SP/G                  HT/PER
                 (UTC) (F)     (DEG/KT/KT) (MB)    (MI)  (FT/S)
BOSTON BUOY      2350   43 46  160/ 10/ 12 1027.3F         2/11
BUZZARDS BAY     2300   43     110/  6/  6 1029.7F
NANTUCKET SOUND  2350   39 39  320/  2/  4 1028.6F         1/ 5
MASS BAY-STELLWA 2304   42 42  200/ 12/ 14 1028.0S  1 7/8  2/ 4
ISLE OF SHOALS   2300   42     190/ 14/ 16 1027.8F
S OF BLOCK IS    2343      49                N/A           3/13
$$

......................KEY.........................
  SKY/WX - SKY CONDITION/PRESENT WEATHER
  TMP    - TEMPERATURE IN FAHRENHEIT
  DWPT   - DEWPOINT IN FAHRENHEIT
  RH     - RELATIVE HUMIDITY IN PERCENT
  WIND   - DIRECTION AND SPEED IN MPH
  PRES   - MEAN SEA LEVEL PRESSURE IN INCHES OF HG
  WCI    - WIND CHILL INDEX
  VSB    - VISIBILITY IN MILES
  HX     - HEAT INDEX
  TC     - TEMPERATURE IN CELSIUS
  VRB    - VARIABLE WIND DIRECTION
  N/A    - NOT AVAILABLE



USA.gov is the U.S. government's official web portal to all federal, state and local government web resources and services.